Location: Poughquag
(41.6090°N, 73.6820°W)
Time: 07:39:38
(UTC-04:00)

Vanguard 1 - All Passes

Search period start: 29 May 2020 00:00
Search period end: 08 June 2020 00:00
Orbit: 649 x 3834 km, 34.3° (Epoch: 29 May)

Date Brightness Start Highest point End Pass type
(mag) Time Alt. Az. Time Alt. Az. Time Alt. Az.
29 May - 05:09:34 10° SSW 05:23:59 38° SE 05:43:44 10° E daylight
29 May - 07:28:47 10° WSW 07:48:04 65° SSE 08:10:51 10° E daylight
29 May - 09:52:08 10° W 10:14:49 70° S 10:35:01 10° ESE daylight
29 May - 12:18:23 10° W 12:40:06 50° SSW 12:55:45 10° SE daylight
29 May - 14:49:21 10° W 15:01:18 19° SW 15:10:32 10° SSW daylight
30 May - 03:16:20 10° SSE 03:23:49 15° ESE 03:32:59 10° E visible
30 May - 05:29:25 10° SSW 05:44:31 45° SE 06:05:34 10° E daylight
30 May - 07:49:36 10° WSW 08:09:21 68° S 08:32:11 10° E daylight
30 May - 10:13:25 10° W 10:36:09 67° SSW 10:55:55 10° ESE daylight
30 May - 12:40:07 10° W 13:00:45 42° SW 13:15:47 10° SSE daylight
30 May - 15:14:27 10° W 15:21:14 13° WSW 15:27:05 10° SW daylight
31 May - 03:33:55 10° S 03:43:47 22° SE 03:57:02 10° E visible
31 May - 05:49:34 10° SW 06:05:13 52° SSE 06:27:14 10° E daylight
31 May - 08:10:33 10° WSW 08:30:42 71° S 08:53:28 10° E daylight
31 May - 10:34:45 10° W 10:57:23 63° SSW 11:16:40 10° SE daylight
31 May - 13:02:04 10° W 13:21:12 35° SW 13:35:28 10° SSE daylight
01 Jun - 03:52:43 10° S 04:03:53 29° SE 04:19:52 10° E visible
01 Jun - 06:09:58 10° SW 06:26:06 59° SSE 06:48:49 10° E daylight
01 Jun - 08:31:35 10° W 08:52:07 71° S 09:14:41 10° ESE daylight
01 Jun - 10:56:09 10° W 11:18:28 57° SSW 11:37:14 10° SE daylight
01 Jun - 13:24:24 10° W 13:41:29 28° SW 13:54:40 10° S daylight
02 Jun - 04:12:08 10° SSW 04:24:07 36° SE 04:42:08 10° E visible
02 Jun - 06:30:33 10° WSW 06:47:09 64° SSE 07:10:18 10° E daylight
02 Jun - 08:52:42 10° W 09:13:31 70° S 09:35:48 10° ESE daylight
02 Jun - 11:17:38 10° W 11:39:24 51° SSW 11:57:34 10° SE daylight
02 Jun - 13:47:26 10° W 14:01:39 21° SW 14:13:09 10° S daylight
03 Jun - 02:20:16 10° SE 02:24:51 12° ESE 02:30:13 10° ESE visible
03 Jun - 04:31:58 10° SSW 04:44:32 43° SE 05:04:03 10° E visible
03 Jun - 06:51:17 10° WSW 07:08:21 68° SSE 07:31:46 10° E daylight
03 Jun - 09:13:52 10° W 09:34:52 67° SSW 09:56:47 10° ESE daylight
03 Jun - 11:39:15 10° W 12:00:09 44° SW 12:17:37 10° SSE daylight
03 Jun - 14:11:55 10° W 14:21:42 15° WSW 14:30:11 10° SSW daylight
04 Jun - 02:37:12 10° SSE 02:44:46 19° SE 02:54:58 10° E visible
04 Jun - 04:52:06 10° SW 05:05:08 50° SSE 05:25:48 10° E daylight
04 Jun - 07:12:09 10° WSW 07:29:39 70° S 07:53:10 10° E daylight
04 Jun - 09:35:05 10° W 09:56:09 63° SSW 10:17:37 10° SE daylight
04 Jun - 12:01:05 10° W 12:20:44 37° SW 12:37:17 10° SSE daylight
05 Jun - 02:55:52 10° S 03:04:46 25° SE 03:17:57 10° E visible
05 Jun - 05:12:26 10° SW 05:25:55 57° SSE 05:47:27 10° E daylight
05 Jun - 07:33:05 10° W 07:51:00 70° S 08:14:30 10° ESE daylight
05 Jun - 09:56:21 10° W 10:17:18 57° SSW 10:38:14 10° SE daylight
05 Jun - 12:23:18 10° W 12:41:10 30° SW 12:56:29 10° S daylight
06 Jun - 03:15:14 10° SSW 03:24:57 33° SE 03:40:17 10° E visible
06 Jun - 05:32:59 10° WSW 05:46:52 62° SSE 06:09:03 10° E daylight
06 Jun - 07:54:05 10° W 08:12:22 69° S 08:35:43 10° ESE daylight
06 Jun - 10:17:43 10° W 10:38:19 51° SSW 10:58:36 10° SE daylight
06 Jun - 12:46:09 10° W 13:01:29 23° SW 13:14:58 10° S daylight
07 Jun - 03:35:02 10° SSW 03:45:17 40° SE 04:02:15 10° E visible
07 Jun - 05:53:39 10° WSW 06:07:58 66° SSE 06:30:35 10° E daylight
07 Jun - 08:15:08 10° W 08:33:42 66° SSW 08:56:49 10° ESE daylight
07 Jun - 10:39:13 10° W 10:59:12 44° SW 11:18:40 10° SSE daylight
07 Jun - 13:10:18 10° W 13:21:44 16° SW 13:32:08 10° SSW daylight
